Weather in Völklingen

Germany     49°15′06″N   6°51′37″E
temp.,
°C
wind,
m/s
gust,
m/s
humid.,
%
clouds,
%
prec.,
mm/h
press.,
hPa
HPBL,
m
17 april, sat
sat1723:00+3ene258185 0.0 1026190
02:00+2nne238896 0.0 102584
05:00+1nne228970 0.0 102435
08:00+3ne127584 0.0 102499
11:00+9ne355440 0.0 10231343
14:00+12nne45345 0.0 10211984
17:00+11ne454598 0.0 10201740
20:00+9ne3659100 0.0 1021847
18 april, sun
sun1823:00+5ene258581 0.0 1022249
02:00+5nne1481100 0.0 1022195
05:00+4nw128682 0.0 102166
08:00+5nne128098 0.0 1022174
11:00+6ne1277100 0.0 1022347
14:00+10nne236797 0.1 10211072
17:00+8ne348089 0.2 1021571
20:00+8ne127932 0.2 1021162
19 april, mon
mon1923:00+6w118762 0.0 102214
02:00+6wnw129291 0.4 102168
05:00+6w129299 0.1 102081
08:00+6sw1190100 0.1 102064
11:00+8w1183100 0.0 1020343
14:00+11wsw226733 0.2 1019959
17:00+12nw226561 0.9 10181043
20:00+9nnw118210 2.1 101812
20 april, tue
tue2023:00+7n119253 1.1 101811
02:00+6ene11945 1.1 101810
05:00+4ne11955 0.0 101810
08:00+6ne11925 0.0 101860
11:00+11e12715 0.0 1017673
14:00+14ene125563 0.8 10161466
17:00+14se115616 1.1 10151277
20:00+12nw016853 1.9 101510
21 april, wed
wed2123:00+8nne118132 0.4 101710
02:00+7n11866 0.4 101710
05:00+6nnw118947 0.0 101710
08:00+8wnw1186100 0.0 101844
11:00+10nnw2476100 0.0 1019381
14:00+13nw355290 0.0 10181562
17:00+12nnw4558100 0.1 10181202
20:00+9n486891 0.1 1020857